W9IF-4 Weather Reports


Display with metric or nautical units.
time (UTC)temp
F
wind
direction
speed
MPH
gust
MPH
rain 1hr
in
rain 24hr
in
rain mn
in
humidity
%
barometer
mb
20180919230222 74 293 9.0 0.0 0.00 0.00 0.00 1005.8
20180919230022 75 304 7.0 0.0 0.00 0.00 0.00 1005.5
20180919225722 75 267 8.0 0.0 0.00 0.00 0.00 1005.8
20180919225622 74 284 9.0 0.0 0.00 0.00 0.00 1005.5
20180919225422 74 273 9.0 0.0 0.00 0.00 0.00 1005.9
20180919225222 73 293 11.0 0.0 0.00 0.00 0.00 1005.9
20180919225022 74 267 11.0 0.0 0.00 0.00 0.00 1005.9
20180919224922 74 295 10.0 0.0 0.00 0.00 0.00 1005.5
20180919224622 75 273 10.0 0.0 0.00 0.00 0.00 1005.5
20180919224422 74 253 8.0 0.0 0.00 0.00 0.00 1005.6
20180919224322 74 295 11.0 0.0 0.00 0.00 0.00 1005.9
20180919224222 74 284 10.0 0.0 0.00 0.00 0.00 1005.6
20180919224022 75 274 11.0 0.0 0.00 0.00 0.00 1006.0
20180919223822 74 283 10.0 0.0 0.00 0.00 0.00 1005.7
20180919223723 74 297 11.0 0.0 0.00 0.00 0.00 1005.6
20180919223622 74 285 11.0 0.0 0.00 0.00 0.00 1006.1
20180919223522 74 298 11.0 0.0 0.00 0.00 0.00 1005.7
20180919223422 73 277 11.0 0.0 0.00 0.00 0.00 1005.8
20180919223322 74 280 9.0 0.0 0.00 0.00 0.00 1006.1
20180919223222 74 298 8.0 0.0 0.00 0.00 0.00 1005.7
20180919223122 75 298 10.0 0.0 0.00 0.00 0.00 1006.1
20180919222922 75 284 10.0 0.0 0.00 0.00 0.00 1006.1
20180919222822 74 287 9.0 0.0 0.00 0.00 0.00 1005.3
20180919222722 75 277 13.0 0.0 0.00 0.00 0.00 1005.9
20180919222622 74 287 8.0 0.0 0.00 0.00 0.00 1006.2
20180919222422 73 288 11.0 0.0 0.00 0.00 0.00 1006.2
20180919222322 74 300 11.0 0.0 0.00 0.00 0.00 1005.8
20180919222222 74 278 11.0 0.0 0.00 0.00 0.00 1006.2
20180919222122 74 283 8.0 0.0 0.00 0.00 0.00 1005.8
20180919222022 75 249 11.0 0.0 0.00 0.00 0.00 1005.9
20180919221922 75 291 11.0 0.0 0.00 0.00 0.00 1006.2
20180919221722 74 271 11.0 0.0 0.00 0.00 0.00 1006.2
20180919221622 74 288 11.0 0.0 0.00 0.00 0.00 1005.8
20180919221522 75 293 10.0 0.0 0.00 0.00 0.00 1006.2
20180919221422 75 288 11.0 0.0 0.00 0.00 0.00 1005.8
20180919221322 76 311 7.0 0.0 0.00 0.00 0.00 1005.8
20180919221222 75 271 9.0 0.0 0.00 0.00 0.00 1006.2
20180919221122 75 298 7.0 0.0 0.00 0.00 0.00 1005.8
20180919221022 75 283 11.0 0.0 0.00 0.00 0.00 1006.2
20180919220922 75 249 12.0 0.0 0.00 0.00 0.00 1005.8
20180919220822 75 253 9.0 0.0 0.00 0.00 0.00 1006.2
20180919220622 74 311 10.0 0.0 0.00 0.00 0.00 1005.9
20180919220522 74 243 9.0 0.0 0.00 0.00 0.00 1006.3
20180919220422 74 274 9.0 0.0 0.00 0.00 0.00 1005.9
20180919220122 75 283 9.0 0.0 0.00 0.00 0.00 1006.4
20180919220022 75 302 7.0 0.0 0.00 0.00 0.00 1006.4
20180919215922 75 273 12.0 0.0 0.00 0.00 0.00 1006.0
20180919215822 74 226 6.0 0.0 0.00 0.00 0.00 1006.0
20180919215722 75 287 10.0 0.0 0.00 0.00 0.00 1006.0
20180919215522 73 276 9.0 0.0 0.00 0.00 0.00 1006.0
20180919215422 75 280 12.0 0.0 0.00 0.00 0.00 1006.4
20180919215322 75 288 11.0 0.0 0.00 0.00 0.00 1006.4
20180919215222 75 259 8.0 0.0 0.00 0.00 0.00 1006.1
20180919215022 75 246 9.0 0.0 0.00 0.00 0.00 1006.1
20180919214922 75 287 10.0 0.0 0.00 0.00 0.00 1006.5
20180919214822 75 309 7.0 0.0 0.00 0.00 0.00 1006.1
20180919214722 75 274 8.0 0.0 0.00 0.00 0.00 1006.5
20180919214623 75 270 10.0 0.0 0.00 0.00 0.00 1006.5
20180919214522 75 294 10.0 0.0 0.00 0.00 0.00 1006.1
20180919214422 74 300 10.0 0.0 0.00 0.00 0.00 1006.5
20180919214322 75 300 11.0 0.0 0.00 0.00 0.00 1006.1
20180919214222 75 290 9.0 0.0 0.00 0.00 0.00 1006.5
20180919214122 75 276 12.0 0.0 0.00 0.00 0.00 1006.2
20180919214022 74 284 10.0 0.0 0.00 0.00 0.00 1006.5
20180919213922 73 276 10.0 0.0 0.00 0.00 0.00 1006.5
20180919213822 74 291 12.0 0.0 0.00 0.00 0.00 1006.2
20180919213723 74 285 11.0 0.0 0.00 0.00 0.00 1006.5
20180919213622 74 269 11.0 0.0 0.00 0.00 0.00 1006.2
20180919213522 75 283 8.0 0.0 0.00 0.00 0.00 1006.6
20180919213422 75 273 9.0 0.0 0.00 0.00 0.00 1006.2
20180919213224 75 271 10.0 0.0 0.00 0.00 0.00 1006.6
20180919213122 75 271 9.0 0.0 0.00 0.00 0.00 1006.2
20180919213022 74 259 6.0 0.0 0.00 0.00 0.00 1006.6
20180919212922 74 281 9.0 0.0 0.00 0.00 0.00 1006.3
20180919212822 74 288 9.0 0.0 0.00 0.00 0.00 1006.7
20180919212722 75 264 9.0 0.0 0.00 0.00 0.00 1006.3
20180919212422 74 276 9.0 0.0 0.00 0.00 0.00 1006.3
20180919212322 74 285 10.0 0.0 0.00 0.00 0.00 1006.7
20180919212222 74 277 10.0 0.0 0.00 0.00 0.00 1006.3
20180919212122 75 295 10.0 0.0 0.00 0.00 0.00 1006.8
20180919212022 76 288 10.0 0.0 0.00 0.00 0.00 1006.3
20180919211922 76 295 9.0 0.0 0.00 0.00 0.00 1006.6
20180919211822 75 266 10.0 0.0 0.00 0.00 0.00 1006.7
20180919211722 75 283 8.0 0.0 0.00 0.00 0.00 1006.2
20180919211622 74 283 10.0 0.0 0.00 0.00 0.00 1006.7
20180919211522 76 301 8.0 0.0 0.00 0.00 0.00 1006.3
20180919211422 76 287 8.0 0.0 0.00 0.00 0.00 1006.7
20180919211322 75 281 8.0 0.0 0.00 0.00 0.00 1006.3
20180919211222 75 280 9.0 0.0 0.00 0.00 0.00 1006.7
20180919211022 75 280 10.0 0.0 0.00 0.00 0.00 1006.4
20180919210922 75 263 8.0 0.0 0.00 0.00 0.00 1006.8
20180919210822 76 269 9.0 0.0 0.00 0.00 0.00 1006.4
20180919210723 74 291 8.0 0.0 0.00 0.00 0.00 1006.8
20180919210622 74 270 9.0 0.0 0.00 0.00 0.00 1006.5
20180919210522 74 267 9.0 0.0 0.00 0.00 0.00 1006.4
20180919210422 76 271 10.0 0.0 0.00 0.00 0.00 1006.9
20180919210322 75 291 9.0 0.0 0.00 0.00 0.00 1006.4
20180919210122 75 290 9.0 0.0 0.00 0.00 0.00 1006.5
20180919205930 75 287 11.0 0.0 0.00 0.00 0.00 1006.7
20180919205822 75 287 11.0 0.0 0.00 0.00 0.00 1006.7
20180919205722 76 273 9.0 0.0 0.00 0.00 0.00 1007.0
20180919205622 76 269 9.0 0.0 0.00 0.00 0.00 1006.6
20180919205522 76 260 9.0 0.0 0.00 0.00 0.00 1007.0
20180919205422 76 273 10.0 0.0 0.00 0.00 0.00 1006.6
20180919205322 76 257 9.0 0.0 0.00 0.00 0.00 1007.0
20180919205222 76 290 9.0 0.0 0.00 0.00 0.00 1006.6
20180919205122 74 273 9.0 0.0 0.00 0.00 0.00 1006.8
20180919205022 74 293 10.0 0.0 0.00 0.00 0.00 1007.0
20180919204922 74 291 9.0 0.0 0.00 0.00 0.00 1006.7
20180919204822 75 290 10.0 0.0 0.00 0.00 0.00 1006.7
20180919204723 75 274 11.0 0.0 0.00 0.00 0.00 1006.8
20180919204622 75 287 10.0 0.0 0.00 0.00 0.00 1007.1
20180919204522 75 291 7.0 0.0 0.00 0.00 0.00 1006.7
20180919204422 74 291 8.0 0.0 0.00 0.00 0.00 1006.8
20180919204322 73 273 5.0 0.0 0.00 0.00 0.00 1007.1
20180919204222 74 291 9.0 0.0 0.00 0.00 0.00 1006.8
20180919204122 73 293 9.0 0.0 0.00 0.00 0.00 1007.1
20180919203922 74 271 7.0 0.0 0.00 0.00 0.00 1007.1
20180919203822 75 290 9.0 0.0 0.00 0.00 0.00 1006.7
20180919203723 74 263 9.0 0.0 0.00 0.00 0.00 1006.8
20180919203622 73 300 9.0 0.0 0.00 0.00 0.00 1007.1
20180919203522 75 309 10.0 0.0 0.00 0.00 0.00 1006.8
20180919203422 74 270 8.0 0.0 0.00 0.00 0.00 1007.1
20180919203322 74 287 9.0 0.0 0.00 0.00 0.00 1006.8
20180919203222 74 285 9.0 0.0 0.00 0.00 0.00 1007.2
20180919203122 74 294 9.0 0.0 0.00 0.00 0.00 1006.9
20180919203022 73 326 6.0 0.0 0.00 0.00 0.00 1006.9
20180919202922 74 315 8.0 0.0 0.00 0.00 0.00 1007.2
20180919202822 73 291 8.0 0.0 0.00 0.00 0.00 1006.5
20180919202722 74 287 9.0 0.0 0.00 0.00 0.00 1007.3
20180919202622 74 249 9.0 0.0 0.00 0.00 0.00 1006.9
20180919202322 74 273 8.0 0.0 0.00 0.00 0.00 1007.0
20180919202022 75 305 9.0 0.0 0.00 0.00 0.00 1007.4
20180919201922 74 307 8.0 0.0 0.00 0.00 0.00 1007.0
20180919201822 74 308 7.0 0.0 0.00 0.00 0.00 1007.4
20180919201722 75 278 8.0 0.0 0.00 0.00 0.00 1007.4
20180919201522 76 297 9.0 0.0 0.00 0.00 0.00 1007.4
20180919201422 76 293 9.0 0.0 0.00 0.00 0.00 1007.0
20180919201322 75 235 6.0 0.0 0.00 0.00 0.00 1007.4
20180919201222 75 294 8.0 0.0 0.00 0.00 0.00 1007.1
20180919201022 74 278 7.0 0.0 0.00 0.00 0.00 1007.5
20180919200922 74 291 6.0 0.0 0.00 0.00 0.00 1007.2
20180919200822 75 293 7.0 0.0 0.00 0.00 0.00 1007.1
20180919200723 75 316 9.0 0.0 0.00 0.00 0.00 1007.2
20180919200622 77 267 8.0 0.0 0.00 0.00 0.00 1007.5
20180919200522 76 293 6.0 0.0 0.00 0.00 0.00 1007.2
20180919200422 75 297 7.0 0.0 0.00 0.00 0.00 1007.6
20180919200322 75 283 8.0 0.0 0.00 0.00 0.00 1007.6
20180919200222 75 288 7.0 0.0 0.00 0.00 0.00 1007.2
20180919200122 74 301 9.0 0.0 0.00 0.00 0.00 1007.6
20180919200022 74 309 8.0 0.0 0.00 0.00 0.00 1007.3
20180919195922 74 297 8.0 0.0 0.00 0.00 0.00 1007.6
20180919195822 74 276 8.0 0.0 0.00 0.00 0.00 1007.0
20180919195322 75 302 7.0 0.0 0.00 0.00 0.00 1007.4
20180919195122 75 305 8.0 0.0 0.00 0.00 0.00 1007.5
20180919195022 75 295 10.0 0.0 0.00 0.00 0.00 1007.7
20180919194922 74 276 10.0 0.0 0.00 0.00 0.00 1007.5
20180919194822 75 294 8.0 0.0 0.00 0.00 0.00 1007.5
20180919194722 74 278 9.0 0.0 0.00 0.00 0.00 1007.9
20180919194622 75 300 8.0 0.0 0.00 0.00 0.00 1007.5
20180919194422 75 297 8.0 0.0 0.00 0.00 0.00 1007.5
20180919194322 74 298 8.0 0.0 0.00 0.00 0.00 1007.8
20180919194222 75 287 10.0 0.0 0.00 0.00 0.00 1007.9
20180919194022 76 278 11.0 0.0 0.00 0.00 0.00 1007.9
20180919193922 76 288 7.0 0.0 0.00 0.00 0.00 1007.6
20180919193723 76 262 10.0 0.0 0.00 0.00 0.00 1007.6
20180919193622 76 304 7.0 0.0 0.00 0.00 0.00 1007.8
20180919193522 76 295 8.0 0.0 0.00 0.00 0.00 1007.9
20180919193422 75 281 8.0 0.0 0.00 0.00 0.00 1007.6
20180919193322 75 274 9.0 0.0 0.00 0.00 0.00 1008.0
20180919193222 75 260 7.0 0.0 0.00 0.00 0.00 1007.6
20180919193122 75 302 6.0 0.0 0.00 0.00 0.00 1008.0
20180919193022 75 291 11.0 0.0 0.00 0.00 0.00 1007.7
20180919192922 74 280 7.0 0.0 0.00 0.00 0.00 1007.8
20180919192822 74 276 3.0 0.0 0.00 0.00 0.00 1007.6
20180919192722 74 277 8.0 0.0 0.00 0.00 0.00 1007.7
20180919192622 73 312 9.0 0.0 0.00 0.00 0.00 1008.1
20180919192522 74 316 8.0 0.0 0.00 0.00 0.00 1007.7
20180919192422 74 288 10.0 0.0 0.00 0.00 0.00 1008.0
20180919192322 73 284 10.0 0.0 0.00 0.00 0.00 1007.7
20180919192222 73 305 7.0 0.0 0.00 0.00 0.00 1007.8
20180919192122 74 318 8.0 0.0 0.00 0.00 0.00 1008.0
20180919192022 75 284 11.0 0.0 0.00 0.00 0.00 1007.7
20180919191922 74 264 10.0 0.0 0.00 0.00 0.00 1008.1
20180919191822 74 288 8.0 0.0 0.00 0.00 0.00 1007.7
20180919191722 74 273 10.0 0.0 0.00 0.00 0.00 1008.1
20180919191522 75 278 11.0 0.0 0.00 0.00 0.00 1007.8
20180919191422 74 305 8.0 0.0 0.00 0.00 0.00 1008.1
20180919191322 74 270 8.0 0.0 0.00 0.00 0.00 1007.8
20180919191222 75 281 10.0 0.0 0.00 0.00 0.00 1008.1
20180919191122 75 285 10.0 0.0 0.00 0.00 0.00 1007.7
20180919191022 75 294 11.0 0.0 0.00 0.00 0.00 1008.1
20180919190922 74 287 9.0 0.0 0.00 0.00 0.00 1007.8
20180919190722 74 294 11.0 0.0 0.00 0.00 0.00 1008.1
20180919190522 73 312 9.0 0.0 0.00 0.00 0.00 1008.1
20180919190422 73 297 8.0 0.0 0.00 0.00 0.00 1007.8
20180919190322 73 308 9.0 0.0 0.00 0.00 0.00 1008.1